Waarnemingen

Advertentie
Mijn weer
Kleine Brogel, België (6479): temperatuur & dauwpunt: 14.07.2018 22:00:00 - 20.07.2018 22:00:00 (CEST)Kleine Brogel, België (6479): windsnelheid & windstoten: 14.07.2018 22:00:00 - 20.07.2018 22:00:00 (CEST)Kleine Brogel, België (6479): windrichting: 14.07.2018 22:00:00 - 20.07.2018 22:00:00 (CEST)Kleine Brogel, België (6479): luchtdruk: 14.07.2018 22:00:00 - 20.07.2018 22:00:00 (CEST)Kleine Brogel, België (6479): zicht: 14.07.2018 22:00:00 - 20.07.2018 22:00:00 (CEST)Kleine Brogel, België (6479): neerslag: 14.07.2018 22:00:00 - 20.07.2018 22:00:00 (CEST)
Datum & Tijd tt [°C] td [°C] ff [km/u] ff [kn] fx [km/u] fx [kn] dd ppp [hPa] vv [km] rr [mm]
20.07.2018 22:00:00 22,1 11,2 7 4 18 10 N 1012,5 20 -
20.07.2018 21:00:00 23,1 10,8 7 4 14 8 NNW 1011,7 20 -
20.07.2018 20:00:00 24,3 9,9 7 4 - - NNW 1012,2 20 -
20.07.2018 19:00:00 25,9 9,1 14 8 22 12 NNW 1012,2 20 -
20.07.2018 18:00:00 27,3 9,6 14 8 25 14 NNW 1012,2 20 -
20.07.2018 17:00:00 28,7 7,0 14 8 - - NW 1012,3 20 -
20.07.2018 16:00:00 29,3 6,5 7 4 25 14 NW 1012,8 20 -
20.07.2018 15:00:00 28,6 5,9 11 6 25 14 NW 1013,2 20 -
20.07.2018 14:00:00 27,2 6,7 7 4 - - WZW 1013,8 20 -
20.07.2018 13:00:00 26,3 6,6 7 4 18 10 NNW 1014,5 20 -
20.07.2018 12:00:00 25,5 7,9 7 4 18 10 NW 1014,7 20 -
20.07.2018 11:00:00 24,4 9,7 7 4 - - NW 1014,7 20 -
20.07.2018 10:00:00 22,4 11,6 7 4 11 6 NNW 1015,1 15 -
20.07.2018 09:00:00 20,2 13,4 4 2 7 4 N 1015,5 15 -
20.07.2018 08:00:00 17,0 12,9 4 2 - - NNW 1015,5 15 -
20.07.2018 07:00:00 13,1 11,1 4 2 4 2 W 1015,6 15 -
20.07.2018 06:00:00 11,6 10,4 4 2 7 4 ZW 1016,0 15 -
20.07.2018 05:00:00 12,0 9,5 4 2 - - ZW 1016,4 20 -
20.07.2018 04:00:00 12,8 9,2 4 2 4 2 WZW 1016,4 20 0,0
20.07.2018 03:00:00 13,5 9,1 4 2 4 2 WZW 1016,7 20 0,0
20.07.2018 02:00:00 14,6 8,7 0 0 - - N 1017,1 20 -
20.07.2018 01:00:00 16,2 8,3 4 2 11 6 NW 1017,3 20 -
20.07.2018 00:00:00 18,1 8,0 4 2 7 4 NNW 1017,4 20 -
19.07.2018 23:00:00 19,7 8,2 7 4 - - NNW 1017,3 20 -
19.07.2018 22:00:00 21,3 8,8 7 4 22 12 NNW 1017,3 20 -
19.07.2018 21:00:00 23,9 10,5 11 6 18 10 NNW 1016,9 20 0,0
19.07.2018 20:00:00 25,6 11,0 14 8 - - NNW 1016,5 20 -
19.07.2018 19:00:00 26,7 10,6 11 6 18 10 N 1016,5 20 -
19.07.2018 18:00:00 28,0 10,5 11 6 14 8 N 1016,8 20 -
19.07.2018 17:00:00 28,1 9,8 7 4 - - WZW 1017,2 20 -
19.07.2018 16:00:00 28,6 9,8 7 4 18 10 ZZW 1017,7 20 -
19.07.2018 15:00:00 27,1 10,5 7 4 18 10 W 1017,8 20 -
19.07.2018 14:00:00 27,4 10,8 11 6 - - WNW 1018,1 20 -
19.07.2018 13:00:00 26,8 11,4 7 4 18 10 NNW 1018,4 20 -
19.07.2018 12:00:00 25,0 12,1 11 6 22 12 W 1018,7 20 -
19.07.2018 11:00:00 24,9 13,0 11 6 - - NW 1018,9 20 -
19.07.2018 10:00:00 22,8 13,4 7 4 14 8 NW 1019,1 20 -
19.07.2018 09:00:00 20,6 13,7 11 6 22 12 N 1019,2 20 -
19.07.2018 08:00:00 17,2 12,7 4 2 - - N 1019,2 20 -
19.07.2018 07:00:00 13,8 11,5 7 4 7 4 WZW 1019,1 20 -
19.07.2018 06:00:00 13,0 11,3 4 2 4 2 N 1019,0 20 -
19.07.2018 05:00:00 14,1 11,2 4 2 - - N 1019,0 20 -
19.07.2018 04:00:00 14,6 11,2 0 0 4 2 N 1019,1 20 -
19.07.2018 03:00:00 14,6 10,8 4 2 4 2 N 1019,2 20 -
19.07.2018 02:00:00 16,2 10,8 4 2 - - N 1019,5 20 -
19.07.2018 01:00:00 17,1 11,0 4 2 11 6 N 1019,5 20 -
19.07.2018 00:00:00 18,5 11,2 7 4 18 10 N 1019,2 20 -
18.07.2018 23:00:00 19,8 11,6 11 6 - - NNW 1019,1 20 -
18.07.2018 22:00:00 21,9 10,5 7 4 14 8 NW 1018,3 20 -
18.07.2018 21:00:00 23,7 9,8 7 4 18 10 NNW 1018,0 20 -
18.07.2018 20:00:00 25,2 9,4 11 6 - - N 1017,7 20 -
18.07.2018 19:00:00 26,4 9,1 7 4 22 12 WNW 1017,7 20 -
18.07.2018 18:00:00 27,1 8,6 7 4 14 8 WNW 1017,7 20 -
18.07.2018 17:00:00 25,3 8,7 4 2 - - N 1018,1 20 -
18.07.2018 16:00:00 26,3 8,5 7 4 25 14 ZZW 1018,2 20 -
18.07.2018 15:00:00 27,2 8,6 7 4 25 14 ZW 1018,3 20 -
18.07.2018 14:00:00 23,7 8,1 11 6 - - WZW 1018,7 20 -
18.07.2018 13:00:00 24,2 8,9 7 4 22 12 W 1019,0 20 -
18.07.2018 12:00:00 24,5 9,2 4 2 22 12 N 1019,1 20 -
18.07.2018 11:00:00 23,7 9,3 7 4 - - ZZW 1019,3 17 -
18.07.2018 10:00:00 21,4 9,4 4 2 11 6 N 1019,6 17 -
18.07.2018 09:00:00 19,9 11,2 4 2 7 4 N 1019,6 17 -
18.07.2018 08:00:00 17,4 11,2 2 1 - - - 1019,5 10 -
18.07.2018 07:00:00 12,1 9,7 4 2 7 4 N 1019,5 18 -
18.07.2018 06:00:00 10,3 8,7 4 2 7 4 N 1019,2 20 -
18.07.2018 05:00:00 11,0 9,4 4 2 - - N 1019,3 16 -
18.07.2018 04:00:00 11,1 9,3 4 2 7 4 N 1019,2 20 -
18.07.2018 03:00:00 12,3 9,7 4 2 7 4 N 1019,3 20 -
18.07.2018 02:00:00 12,8 10,0 7 4 - - N 1019,1 20 -
18.07.2018 01:00:00 13,8 9,6 4 2 7 4 N 1019,0 20 -
18.07.2018 00:00:00 15,1 9,7 4 2 7 4 N 1018,9 20 -
17.07.2018 23:00:00 17,0 9,9 4 2 - - N 1018,5 20 -
17.07.2018 22:00:00 19,3 8,5 4 2 22 12 NW 1018,1 20 -
17.07.2018 21:00:00 21,5 7,8 14 8 29 16 WNW 1017,4 20 -
17.07.2018 20:00:00 22,8 9,3 14 8 - - WNW 1016,7 20 -
17.07.2018 19:00:00 24,6 11,1 18 10 36 19 NW 1016,1 20 -
17.07.2018 18:00:00 27,5 11,0 14 8 36 19 WNW 1015,5 20 -
17.07.2018 17:00:00 27,5 10,6 47 25 - - WZW 1015,3 20 -
17.07.2018 16:00:00 27,0 12,2 25 14 36 19 W 1015,6 20 -
17.07.2018 15:00:00 28,3 12,9 18 10 36 19 WZW 1015,6 10 -
17.07.2018 14:00:00 27,8 12,5 18 10 - - WZW 1015,8 20 -
17.07.2018 13:00:00 27,7 11,1 18 10 29 16 W 1015,7 20 -
17.07.2018 12:00:00 27,0 10,5 18 10 29 16 WZW 1015,5 20 -
17.07.2018 11:00:00 25,7 11,0 18 10 - - WZW 1015,3 20 -
17.07.2018 10:00:00 24,5 10,9 14 8 22 12 WZW 1015,1 20 -
17.07.2018 09:00:00 22,1 10,8 14 8 22 12 WZW 1015,0 20 -
17.07.2018 08:00:00 20,0 12,2 11 6 - - WZW 1014,7 20 -
17.07.2018 07:00:00 17,7 13,6 7 4 14 8 ZW 1014,5 20 -
17.07.2018 06:00:00 18,2 13,8 8 4 11 6 WZW 1014,1 10 -
17.07.2018 05:00:00 18,2 13,6 11 6 - - ZW 1013,8 20 -
17.07.2018 04:00:00 17,6 13,5 7 4 25 14 ZW 1013,8 20 -
17.07.2018 03:00:00 17,7 14,6 4 2 4 2 N 1013,7 19 -
17.07.2018 02:00:00 18,8 14,4 4 2 - - N 1014,0 20 -
17.07.2018 01:00:00 21,5 11,8 4 2 11 6 N 1013,8 20 -
17.07.2018 00:00:00 21,6 12,3 4 2 11 6 N 1013,7 20 -
16.07.2018 23:00:00 22,1 12,6 7 4 - - WNW 1013,5 20 -
16.07.2018 22:00:00 23,1 12,1 11 6 29 16 WNW 1013,2 20 -
16.07.2018 21:00:00 25,5 8,0 4 2 14 8 N 1012,3 20 -
16.07.2018 20:00:00 27,8 7,0 7 4 - - NNO 1011,8 20 -
16.07.2018 19:00:00 29,2 6,4 11 6 25 14 ONO 1011,5 20 -
16.07.2018 18:00:00 30,2 7,1 7 4 22 12 NNO 1011,7 20 -
16.07.2018 17:00:00 30,8 6,6 11 6 - - NNW 1011,8 20 -
16.07.2018 16:00:00 29,6 7,2 4 2 29 16 N 1012,2 20 -
16.07.2018 15:00:00 30,8 7,0 15 8 29 16 NO 1012,6 10 -
16.07.2018 14:00:00 29,9 7,1 14 8 - - ONO 1013,3 20 -
16.07.2018 13:00:00 29,5 7,2 11 6 11 6 ONO 1013,6 20 -
16.07.2018 12:00:00 27,5 8,4 11 6 18 10 O 1013,7 20 -
16.07.2018 11:00:00 27,6 8,4 7 4 - - NO 1014,1 20 -
16.07.2018 10:00:00 25,3 9,5 4 2 7 4 N 1014,2 20 -
16.07.2018 09:00:00 22,5 10,1 7 4 11 6 ONO 1014,3 20 -
16.07.2018 08:00:00 18,4 10,0 4 2 - - N 1014,6 20 -
16.07.2018 07:00:00 14,0 9,1 4 2 0 0 N 1014,7 20 -
16.07.2018 06:00:00 12,2 8,6 0 0 0 0 N 1014,8 20 -
16.07.2018 05:00:00 13,0 8,9 4 2 - - N 1014,7 20 -
16.07.2018 04:00:00 14,1 8,7 0 0 0 0 N 1014,8 20 -
16.07.2018 03:00:00 14,7 8,5 4 2 4 2 N 1015,2 20 -
16.07.2018 02:00:00 15,3 8,5 4 2 - - N 1015,3 20 -
16.07.2018 01:00:00 17,0 8,9 4 2 0 0 N 1015,2 20 -
16.07.2018 00:00:00 18,2 8,7 4 2 4 2 N 1015,3 20 -
15.07.2018 23:00:00 20,0 8,3 4 2 - - N 1015,3 20 -
15.07.2018 22:00:00 22,8 8,1 4 2 11 6 N 1015,0 20 -
15.07.2018 21:00:00 25,3 7,6 7 4 18 10 NO 1014,6 20 -
15.07.2018 20:00:00 27,1 6,7 11 6 - - NO 1014,2 20 -
15.07.2018 19:00:00 28,4 7,4 11 6 25 14 NNO 1014,3 20 -
15.07.2018 18:00:00 29,0 7,9 11 6 22 12 NO 1014,5 20 -
15.07.2018 17:00:00 29,3 7,9 11 6 - - NO 1015,0 20 -
15.07.2018 16:00:00 29,8 7,1 11 6 25 14 NO 1015,2 20 -
15.07.2018 15:00:00 28,8 7,3 7 4 25 14 O 1015,8 20 -
15.07.2018 14:00:00 28,6 7,5 7 4 - - ONO 1016,6 20 -
15.07.2018 13:00:00 27,3 9,7 14 8 25 14 NO 1017,1 20 -
15.07.2018 12:00:00 26,4 10,0 11 6 22 12 NO 1017,5 20 -
15.07.2018 11:00:00 24,4 10,0 11 6 - - NO 1017,8 20 -
15.07.2018 10:00:00 23,4 12,1 7 4 14 8 NO 1018,0 20 -
15.07.2018 09:00:00 21,1 12,0 7 4 11 6 ONO 1018,2 20 -
15.07.2018 08:00:00 17,7 11,3 7 4 - - N 1018,2 20 -
15.07.2018 07:00:00 13,0 10,3 4 2 0 0 N 1018,2 20 -
15.07.2018 06:00:00 11,3 9,4 0 0 4 2 N 1018,3 20 -
15.07.2018 05:00:00 12,5 10,2 4 2 - - N 1018,6 20 -
15.07.2018 04:00:00 12,8 9,9 4 2 4 2 N 1018,6 20 -
15.07.2018 03:00:00 13,8 10,1 4 2 0 0 N 1018,8 20 -
15.07.2018 02:00:00 15,3 10,3 4 2 - - N 1019,0 20 -
15.07.2018 01:00:00 16,3 10,2 4 2 4 2 N 1019,1 20 -
15.07.2018 00:00:00 17,7 10,6 4 2 7 4 N 1019,0 20 -
14.07.2018 23:00:00 20,0 10,4 4 2 - - N 1018,7 20 -
14.07.2018 22:00:00 21,3 9,7 4 2 11 6 N 1018,5 20 -

tt = temperatuur
td = dauwpunt
ff = windsnelheid
fx = windstoten
dd = windrichting
ppp = luchtdruk
vv = zicht
rr = neerslag

Weerstations in de omgeving